Tracking 20724 objects as of 2-Jun-2020
HD Live streaming from Space Station
objects crossing your sky now

COSMOS 1867 COOLANT

Track COSMOS 1867 COOLANT now!
10-day predictions


NORAD ID: 39658
Int'l Code: 1987-060V
Perigee: 782.8 km
Apogee: 802.0 km
Inclination: 65.0 °
Period: 100.6 minutes
Semi major axis: 7163 km
RCS: Unknown
Launch date: July 10, 1987
Source: Commonwealth of Independent States (former USSR) (CIS)
Launch site: TYURATAM MISSILE AND SPACE COMPLEX (TTMTR)

Note: This is SATELLITE DEBRIS
aabbcc
Your satellite tracking list
Your tracking list is empty




NASA's NSSDC Master Catalog

Two Line Element Set (TLE):
1 39658U 87060V   20153.78725235 -.00000032 +00000-0 +25337-4 0  9992
2 39658 065.0120 078.2252 0013343 274.2626 085.6934 14.31939451320657
Source of the keplerian elements: AFSPC